Date,TemperatureHighF,TemperatureAvgF,TemperatureLowF,DewpointHighF,DewpointAvgF,DewpointLowF,HumidityHigh,HumidityAvg,HumidityLow,PressureMaxIn,PressureMinIn,WindSpeedMaxMPH,WindSpeedAvgMPH,GustSpeedMaxMPH,PrecipitationSumIn
2013-3-1,37.5,33.5,30.4,30.0,28.8,27.0,91,83,69,30.02,29.96,18,7,22,0.00
2013-3-2,37.0,32.2,27.1,30.0,26.8,21.0,89,80,63,30.05,29.93,22,10,29,0.00
2013-3-3,30.6,26.4,23.4,22.0,17.7,15.0,86,70,55,30.15,30.03,25,12,31,0.00
2013-3-4,51.8,35.6,24.9,28.0,18.5,13.0,76,54,21,30.24,30.11,18,6,19,0.00
2013-3-5,50.1,39.5,33.5,48.0,35.6,27.0,97,85,67,30.13,29.68,27,4,32,0.78
2013-3-6,34.0,29.2,25.8,29.0,25.2,23.0,94,85,71,30.27,29.77,36,16,50,0.00
2013-3-7,36.4,31.0,28.3,28.0,25.7,24.0,89,81,71,30.40,30.27,24,11,27,0.00
2013-3-8,46.9,35.0,25.5,29.0,25.5,23.0,90,71,43,30.44,30.34,17,6,22,0.00
2013-3-9,64.2,44.5,23.8,29.0,26.3,22.0,94,56,25,30.42,30.25,12,4,16,0.00
2013-3-10,64.2,54.0,44.5,36.0,32.0,28.0,60,44,30,30.28,30.12,20,8,27,0.00
2013-3-11,55.7,51.7,48.8,51.0,46.3,35.0,95,82,53,30.14,29.82,26,10,32,0.69
2013-3-12,52.2,43.1,36.1,51.0,37.4,33.0,96,81,58,30.09,29.78,28,11,35,0.27
2013-3-13,41.9,35.6,28.6,33.0,26.0,18.0,96,71,44,30.28,30.09,26,8,39,0.00
2013-3-14,43.4,32.9,25.0,21.0,16.8,11.0,70,54,32,30.39,30.28,25,12,34,0.00
2013-3-15,68.7,46.4,28.4,41.0,30.4,19.0,84,58,25,30.29,29.97,11,3,19,0.00
2013-3-16,76.0,58.3,39.4,48.0,43.5,38.0,93,63,32,29.96,29.76,13,3,19,0.00
2013-3-17,73.8,58.5,46.0,50.0,46.4,44.0,92,68,36,29.98,29.81,16,4,23,0.00
2013-3-18,48.2,43.1,39.5,43.0,40.3,37.0,95,90,83,30.03,29.86,19,8,27,0.57
2013-3-19,54.9,45.3,36.5,43.0,30.2,16.0,98,61,28,30.14,29.91,22,8,31,0.01
2013-3-20,52.0,40.0,28.6,31.0,18.8,9.0,92,48,19,30.16,29.88,22,5,29,0.00
2013-3-21,34.7,28.2,21.6,28.0,15.4,11.0,91,60,41,30.05,29.90,22,12,28,0.00
2013-3-22,46.9,33.6,21.9,25.0,16.8,13.0,78,53,29,30.14,30.05,10,3,14,0.00
2013-3-23,54.5,44.0,35.9,43.0,35.3,25.0,89,72,55,30.09,29.88,13,2,18,0.02
2013-3-24,47.6,42.8,38.8,42.0,40.0,37.0,94,89,81,29.92,29.52,18,6,25,0.89
2013-3-25,39.0,34.3,30.0,38.0,25.6,20.0,94,71,53,29.98,29.56,27,10,38,0.04
2013-3-26,36.1,31.1,28.0,28.0,26.2,24.0,91,82,67,30.30,29.99,22,13,32,0.00
2013-3-27,41.5,34.0,29.6,28.0,25.5,23.0,89,72,54,30.38,30.27,22,11,28,0.00
2013-3-28,48.5,35.6,25.3,27.0,23.4,20.0,91,65,33,30.40,30.30,23,6,28,0.00
2013-3-29,53.3,37.3,23.3,38.0,29.2,19.0,94,77,27,30.42,30.32,17,3,24,0.07
2013-3-30,62.9,49.1,38.5,44.0,39.9,37.0,96,74,45,30.32,30.06,7,2,12,0.17
2013-3-31,63.4,52.5,47.1,53.0,48.6,42.0,97,87,63,30.06,29.84,15,3,18,0.43